This is the latest recevied weather packets stored in our database for station/object KA9CBS. If no packets are shown the sender has not sent any weather packets the latest 10 day(s).
| Time | Temp. | Humidity | Pressure | Rain* | Wind** | Luminosity | Snow |
|---|---|---|---|---|---|---|---|
| 1777606239 | 11.67° C | 68% | 1016.7 hPa | 0 mm | - | 0 W/m² | - |
| 1777605936 | 11.67° C | 68% | 1016.9 hPa | 0 mm | - | 0 W/m² | - |
| 1777605632 | 11.67° C | 69% | 1016.8 hPa | 0 mm | - | 0 W/m² | - |
| 1777605331 | 11.11° C | 70% | 1016.7 hPa | 0 mm | - | 0 W/m² | - |
| 1777605028 | 10.56° C | 73% | 1016.6 hPa | 0 mm | - | 0 W/m² | - |
| 1777604723 | 10° C | 77% | 1016.8 hPa | 0 mm | - | 0 W/m² | - |
| 1777604420 | 9.44° C | 82% | 1016.7 hPa | 0 mm | - | 0 W/m² | - |
| 1777604120 | 9.44° C | 84% | 1016.8 hPa | 0 mm | - | 0 W/m² | - |
| 1777603817 | 9.44° C | 85% | 1016.8 hPa | 0 mm | - | 0 W/m² | - |
| 1777603514 | 9.44° C | 84% | 1016.6 hPa | 0 mm | - | 0 W/m² | - |
| 1777603209 | 10° C | 84% | 1016.7 hPa | 0 mm | - | 0 W/m² | - |
| 1777602905 | 10° C | 84% | 1016.8 hPa | 0 mm | - | 0 W/m² | - |
| 1777602600 | 10° C | 84% | 1016.8 hPa | 0 mm | - | 0 W/m² | - |
| 1777602295 | 10° C | 84% | 1016.6 hPa | 0 mm | - | 0 W/m² | - |
| 1777601991 | 10° C | 84% | 1016.8 hPa | 0 mm | - | 0 W/m² | - |
| 1777601687 | 10° C | 83% | 1016.7 hPa | 0 mm | - | 0 W/m² | - |
| 1777601382 | 10° C | 83% | 1016.5 hPa | 0 mm | - | 0 W/m² | - |
| 1777601079 | 10.56° C | 82% | 1016.6 hPa | 0 mm | - | 0 W/m² | - |
| 1777600776 | 10.56° C | 81% | 1016.3 hPa | 0 mm | - | 0 W/m² | - |
| 1777600472 | 10.56° C | 80% | 1016.6 hPa | 0 mm | - | 0 W/m² | - |
| 1777600168 | 10.56° C | 80% | 1016.6 hPa | 0 mm | - | 0 W/m² | - |
| 1777599863 | 11.11° C | 80% | 1016.6 hPa | 0 mm | - | 0 W/m² | - |
| 1777599560 | 11.11° C | 79% | 1016.6 hPa | 0 mm | - | 0 W/m² | - |
| 1777599257 | 11.67° C | 77% | 1016.5 hPa | 0 mm | - | 0 W/m² | - |
| 1777598952 | 11.67° C | 76% | 1016.7 hPa | 0 mm | - | 0 W/m² | - |
* Rain latest hour (hover to see other rain measurements)
** Current wind speed in m/s (hover to see current wind gust speed)